AB5KT-1 Weather Reports


Display with metric or nautical units.
time (UTC)temp
F
wind
direction
speed
MPH
gust
MPH
rain 1hr
in
rain 24hr
in
rain mn
in
humidity
%
barometer
mb
20260506155538 75 58 2.0 4.0 0.01 0.01 0.01 86 1011.1
20260506155534 75 59 1.0 4.0 0.01 0.01 0.01 87 1011.1
20260506154534 76 42 2.0 6.0 0.00 0.00 0.00 85 1011.0
20260506154031 76 69 1.0 6.0 0.00 0.00 0.00 84 1011.0
20260506153532 76 44 1.0 5.0 0.00 0.00 0.00 83 1010.9
20260506153032 77 50 1.0 4.0 0.00 0.00 0.00 83 1010.8
20260506152531 77 56 1.0 4.0 0.00 0.00 0.00 83 1010.8
20260506152032 77 54 1.0 2.0 0.00 0.00 0.00 83 1010.6
20260506151532 77 54 1.0 6.0 0.00 0.00 0.00 83 1010.6
20260506151032 77 65 1.0 6.0 0.00 0.00 0.00 82 1010.5
20260506150530 77 48 1.0 4.0 0.00 0.00 0.00 82 1010.5
20260506150028 77 27 1.0 4.0 0.00 0.00 0.00 83 1010.4
20260506145528 77 27 1.0 4.0 0.00 0.00 0.00 83 1010.4
20260506145029 76 119 1.0 2.0 0.00 0.00 0.00 83 1010.4
20260506144528 76 119 1.0 2.0 0.00 0.00 0.00 83 1010.4
20260506144027 76 126 0.0 1.0 0.00 0.00 0.00 83 1010.3
20260506143528 76 126 0.0 4.0 0.00 0.00 0.00 83 1010.3
20260506143028 76 126 0.0 4.0 0.00 0.00 0.00 84 1010.2
20260506142528 76 131 1.0 5.0 0.00 0.00 0.00 84 1010.1
20260506142032 76 121 1.0 5.0 0.00 0.00 0.00 84 1009.9
20260506142028 76 110 1.0 5.0 0.00 0.00 0.00 84 1009.9
20260506141028 76 261 0.0 1.0 0.00 0.00 0.00 85 1010.0
20260506140526 76 261 1.0 4.0 0.00 0.00 0.00 85 1009.9
20260506140026 76 126 1.0 4.0 0.00 0.00 0.00 85 1009.7
20260506135526 76 131 0.0 4.0 0.00 0.00 0.00 85 1009.6
20260506135025 75 132 0.0 4.0 0.00 0.00 0.00 86 1009.5
20260506134526 75 142 1.0 5.0 0.00 0.00 0.00 86 1009.4
20260506134025 75 114 1.0 5.0 0.00 0.00 0.00 86 1009.2
20260506133526 75 119 1.0 5.0 0.00 0.00 0.00 86 1009.2
20260506133026 75 121 1.0 5.0 0.00 0.00 0.00 86 1009.1
20260506132524 75 116 1.0 5.0 0.00 0.00 0.00 86 1009.1
20260506132028 75 108 1.0 4.0 0.00 0.00 0.00 86 1009.1
20260506132024 75 113 1.0 4.0 0.00 0.00 0.00 86 1009.2
20260506131024 75 105 1.0 7.0 0.00 0.00 0.00 87 1009.0
20260506130524 75 158 2.0 7.0 0.00 0.00 0.00 87 1008.9
20260506130024 75 127 2.0 7.0 0.00 0.00 0.00 87 1008.8
20260506125524 75 134 2.0 7.0 0.00 0.00 0.00 87 1008.8
20260506125024 74 111 2.0 6.0 0.00 0.00 0.00 87 1008.8
20260506124524 74 117 1.0 5.0 0.00 0.00 0.00 88 1008.9
20260506124024 74 127 1.0 6.0 0.00 0.00 0.00 88 1008.8
20260506123528 74 118 1.0 5.0 0.00 0.00 0.00 88 1008.9
20260506123524 74 120 1.0 6.0 0.00 0.00 0.00 88 1008.8
20260506122523 74 119 1.0 4.0 0.00 0.00 0.00 88 1008.8
20260506122023 74 134 1.0 4.0 0.00 0.00 0.00 88 1008.8
20260506121521 74 157 0.0 2.0 0.00 0.00 0.00 88 1008.9
20260506121019 74 118 1.0 5.0 0.00 0.00 0.00 88 1008.9
20260506120519 74 123 1.0 5.0 0.00 0.00 0.00 88 1008.9
20260506120019 74 125 1.0 5.0 0.00 0.00 0.00 88 1008.8
20260506115520 74 131 1.0 5.0 0.00 0.00 0.00 88 1008.8
20260506115017 74 118 1.0 5.0 0.00 0.00 0.00 88 1008.8
20260506114517 74 130 0.0 5.0 0.00 0.00 0.00 88 1008.8
20260506114018 74 108 0.0 2.0 0.00 0.00 0.00 88 1008.8
20260506113515 74 108 0.0 2.0 0.00 0.00 0.00 88 1008.8
20260506113017 74 108 0.0 2.0 0.00 0.00 0.00 87 1008.8
20260506112516 74 108 0.0 1.0 0.00 0.00 0.00 87 1008.8
20260506112015 74 108 0.0 1.0 0.00 0.00 0.00 87 1008.8
20260506111513 74 108 0.0 4.0 0.00 0.00 0.00 87 1008.8
20260506111012 74 108 0.0 4.0 0.00 0.00 0.00 87 1008.8
20260506110511 74 122 0.0 2.0 0.00 0.00 0.00 87 1008.8
20260506110009 74 123 0.0 1.0 0.00 0.00 0.00 87 1008.8
20260506105507 74 123 0.0 1.0 0.00 0.00 0.00 87 1008.8
20260506105008 74 123 0.0 1.0 0.00 0.00 0.00 87 1008.8
20260506104508 74 123 0.0 5.0 0.00 0.00 0.00 87 1008.7
20260506104004 75 123 0.0 5.0 0.00 0.00 0.00 87 1008.6
20260506103503 75 133 1.0 5.0 0.00 0.00 0.00 87 1008.4
20260506103006 75 134 1.0 5.0 0.00 0.00 0.00 87 1008.4
20260506103002 75 134 0.0 5.0 0.00 0.00 0.00 87 1008.4
20260506102002 75 126 1.0 5.0 0.00 0.00 0.00 87 1008.6
20260506101459 75 125 1.0 4.0 0.00 0.00 0.00 87 1008.6
20260506101000 75 126 1.0 7.0 0.00 0.00 0.00 87 1008.4
20260506100459 75 154 1.0 7.0 0.00 0.00 0.00 87 1008.4
20260506100455 75 159 1.0 5.0 0.00 0.00 0.00 87 1008.4
20260506095454 75 170 1.0 5.0 0.00 0.00 0.00 87 1008.4
20260506094955 75 192 1.0 6.0 0.00 0.00 0.00 87 1008.4
20260506094951 74 190 1.0 6.0 0.00 0.00 0.00 87 1008.4
20260506093949 74 126 2.0 6.0 0.00 0.00 0.00 87 1008.4
20260506093452 74 163 2.0 6.0 0.00 0.00 0.00 87 1008.4
20260506093448 74 155 2.0 6.0 0.00 0.00 0.00 87 1008.4
20260506093051 74 123 1.0 6.0 0.00 0.00 0.00 87 1008.4
20260506091945 74 132 1.0 5.0 0.00 0.00 0.00 87 1008.4
20260506091444 74 155 1.0 5.0 0.00 0.00 0.00 87 1008.4
20260506090941 74 133 1.0 4.0 0.00 0.00 0.00 87 1008.4
20260506090441 74 113 1.0 4.0 0.00 0.00 0.00 87 1008.6
20260506085940 75 163 1.0 5.0 0.00 0.00 0.00 87 1008.6
20260506085439 75 115 1.0 5.0 0.00 0.00 0.00 87 1008.4
20260506084940 75 110 2.0 7.0 0.00 0.00 0.00 86 1008.6
20260506084443 75 131 2.0 6.0 0.00 0.00 0.00 86 1008.7
20260506084439 75 163 2.0 7.0 0.00 0.00 0.00 86 1008.6
20260506083436 75 127 2.0 8.0 0.00 0.00 0.00 86 1008.7
20260506082931 75 140 3.0 8.0 0.00 0.00 0.00 86 1008.7
20260506082436 75 126 2.0 8.0 0.00 0.00 0.00 85 1008.7
20260506082432 75 121 2.0 7.0 0.00 0.00 0.00 86 1008.6
20260506081427 75 22 2.0 8.0 0.00 0.00 0.00 85 1008.7
20260506080928 75 89 2.0 6.0 0.00 0.00 0.00 85 1008.7
20260506080427 75 200 1.0 5.0 0.00 0.00 0.00 85 1008.7
20260506073418 75 134 2.0 8.0 0.00 0.00 0.00 85 1008.8
20260506072917 75 109 2.0 8.0 0.00 0.00 0.00 85 1008.9
20260506072415 75 126 2.0 9.0 0.00 0.00 0.00 85 1008.9
20260506071918 76 125 3.0 8.0 0.00 0.00 0.00 85 1008.9
20260506071914 75 114 3.0 9.0 0.00 0.00 0.00 85 1008.9
20260506070914 76 133 3.0 7.0 0.00 0.00 0.00 85 1009.0
20260506070413 76 184 3.0 10.0 0.00 0.00 0.00 85 1009.1
20260506062413 76 123 2.0 7.0 0.00 0.00 0.00 85 1009.0
20260506061914 76 106 2.0 8.0 0.00 0.00 0.00 85 1008.9
20260506061414 76 90 3.0 8.0 0.00 0.00 0.00 85 1009.0
20260506060913 76 122 4.0 9.0 0.00 0.00 0.00 85 1008.9
20260506060414 76 138 3.0 9.0 0.00 0.00 0.00 85 1008.9
20260506051414 76 59 2.0 7.0 0.00 0.00 0.00 85 1008.8
20260506050917 76 122 2.0 7.0 0.00 0.00 0.00 84 1008.9
20260506050913 76 76 2.0 7.0 0.00 0.00 0.00 84 1008.9
20260506044914 76 107 3.0 8.0 0.00 0.00 0.00 83 1008.7
20260506044417 77 128 3.0 11.0 0.00 0.00 0.00 83 1008.7
20260506044413 77 136 3.0 8.0 0.00 0.00 0.00 83 1008.7
20260506043414 77 147 3.0 11.0 0.00 0.00 0.00 83 1008.7
20260506042911 77 148 3.0 7.0 0.00 0.00 0.00 83 1008.7
20260506042412 77 118 3.0 9.0 0.00 0.00 0.00 82 1008.7
20260506041910 77 123 3.0 9.0 0.00 0.00 0.00 82 1008.7
20260506041413 78 150 3.0 8.0 0.00 0.00 0.00 81 1008.3
20260506041409 78 114 4.0 11.0 0.00 0.00 0.00 82 1008.4
20260506041013 78 31 3.0 11.0 0.00 0.00 0.00 81 1008.3
20260506035906 78 136 4.0 11.0 0.00 0.00 0.00 81 1008.2
20260506035406 78 121 4.0 11.0 0.00 0.00 0.00 81 1008.2
20260506034905 78 147 4.0 10.0 0.00 0.00 0.00 80 1008.3
20260506034406 78 117 4.0 11.0 0.00 0.00 0.00 80 1008.2
20260506033904 79 108 3.0 11.0 0.00 0.00 0.00 80 1008.1
20260506033404 79 121 3.0 8.0 0.00 0.00 0.00 80 1008.0
20260506032906 79 134 4.0 10.0 0.00 0.00 0.00 79 1008.0
20260506032902 79 131 3.0 10.0 0.00 0.00 0.00 79 1007.9
20260506031901 80 123 2.0 10.0 0.00 0.00 0.00 79 1007.9
20260506031400 80 128 2.0 7.0 0.00 0.00 0.00 78 1007.9
20260506030900 80 112 2.0 7.0 0.00 0.00 0.00 78 1007.9
20260506030404 80 107 2.0 10.0 0.00 0.00 0.00 77 1007.8
20260506030400 80 119 2.0 7.0 0.00 0.00 0.00 78 1007.9
20260506030002 80 134 3.0 10.0 0.00 0.00 0.00 78 1007.8
20260506024858 81 134 1.0 6.0 0.00 0.00 0.00 77 1007.7
20260506024358 81 129 2.0 6.0 0.00 0.00 0.00 77 1007.5
20260506023857 81 118 3.0 7.0 0.00 0.00 0.00 76 1007.4
20260506023358 82 103 2.0 7.0 0.00 0.00 0.00 76 1007.4
20260506022858 82 127 2.0 6.0 0.00 0.00 0.00 75 1007.2
20260506022357 82 116 2.0 6.0 0.00 0.00 0.00 74 1007.2
20260506021858 83 123 2.0 7.0 0.00 0.00 0.00 74 1007.2
20260506021358 83 109 2.0 9.0 0.00 0.00 0.00 73 1007.1
20260506020901 83 103 2.0 8.0 0.00 0.00 0.00 71 1007.1
20260506020857 83 109 2.0 9.0 0.00 0.00 0.00 72 1007.1
20260506015901 84 110 3.0 9.0 0.00 0.00 0.00 70 1006.9
20260506015857 84 87 3.0 7.0 0.00 0.00 0.00 71 1007.1
20260506014855 84 112 2.0 9.0 0.00 0.00 0.00 70 1006.7
20260506014400 84 134 2.0 8.0 0.00 0.00 0.00 70 1006.6
20260506014356 84 84 2.0 8.0 0.00 0.00 0.00 70 1006.6
20260506013400 84 113 2.0 7.0 0.00 0.00 0.00 69 1006.3
20260506013356 84 119 1.0 7.0 0.00 0.00 0.00 69 1006.4
20260506012400 85 88 2.0 8.0 0.00 0.00 0.00 68 1006.2
20260506012356 84 88 1.0 5.0 0.00 0.00 0.00 69 1006.3
20260506011353 85 98 2.0 8.0 0.00 0.00 0.00 68 1006.2
20260506010852 85 102 2.0 6.0 0.00 0.00 0.00 67 1006.1
20260506010355 86 103 2.0 6.0 0.00 0.00 0.00 66 1006.0
20260506010351 85 117 2.0 6.0 0.00 0.00 0.00 66 1006.0
20260506005351 86 78 2.0 6.0 0.00 0.00 0.00 65 1006.0
20260506004852 87 78 2.0 6.0 0.00 0.00 0.00 65 1005.9
20260506004352 87 100 2.0 6.0 0.00 0.00 0.00 64 1005.8
20260506003852 87 84 2.0 6.0 0.00 0.00 0.00 63 1005.8
20260506003355 88 104 2.0 6.0 0.00 0.00 0.00 62 1005.9
20260506003351 89 129 1.0 5.0 0.00 0.00 0.00 61 1005.9
20260506002350 89 127 1.0 5.0 0.00 0.00 0.00 61 1005.9
20260506001853 89 130 1.0 4.0 0.00 0.00 0.00 61 1005.9
20260506001848 90 121 0.0 2.0 0.00 0.00 0.00 59 1005.9
20260506000847 90 123 0.0 4.0 0.00 0.00 0.00 58 1005.9
20260506000348 91 123 1.0 4.0 0.00 0.00 0.00 59 1005.9
20260505235848 90 126 1.0 4.0 0.00 0.00 0.00 59 1005.8
20260505235347 90 97 1.0 6.0 0.00 0.00 0.00 59 1005.8
20260505234846 90 56 2.0 6.0 0.00 0.00 0.00 59 1005.8
20260505234345 91 158 1.0 5.0 0.00 0.00 0.00 58 1005.8
20260505233850 91 150 1.0 6.0 0.00 0.00 0.00 58 1005.9
20260505233846 91 135 0.0 6.0 0.00 0.00 0.00 57 1005.8
20260505232846 91 132 1.0 5.0 0.00 0.00 0.00 58 1005.8
20260505232344 91 140 1.0 5.0 0.00 0.00 0.00 58 1005.8
20260505231843 90 148 1.0 4.0 0.00 0.00 0.00 59 1005.8
20260505231344 91 119 1.0 4.0 0.00 0.00 0.00 57 1005.9
20260505230848 91 156 1.0 4.0 0.00 0.00 0.00 56 1005.7
20260505230844 91 166 0.0 4.0 0.00 0.00 0.00 57 1005.8
20260505225842 92 188 1.0 6.0 0.00 0.00 0.00 56 1005.8
20260505225341 91 129 1.0 6.0 0.00 0.00 0.00 57 1005.7
20260505224842 91 136 1.0 5.0 0.00 0.00 0.00 58 1005.8
20260505224345 91 126 2.0 7.0 0.00 0.00 0.00 58 1005.7
20260505224341 91 142 2.0 7.0 0.00 0.00 0.00 58 1005.8
20260505223344 89 130 2.0 8.0 0.00 0.00 0.00 61 1005.8
20260505223340 90 108 3.0 8.0 0.00 0.00 0.00 59 1005.8
20260505222944 89 184 2.0 6.0 0.00 0.00 0.00 60 1005.8
20260505221840 89 138 3.0 7.0 0.00 0.00 0.00 60 1005.8
20260505221338 89 180 3.0 7.0 0.00 0.00 0.00 60 1005.8
20260505220838 89 153 2.0 6.0 0.00 0.00 0.00 60 1005.9
20260505220342 89 222 2.0 6.0 0.00 0.00 0.00 60 1006.1
20260505220338 89 133 1.0 5.0 0.00 0.00 0.00 61 1006.0
20260505215342 89 180 3.0 11.0 0.00 0.00 0.00 60 1006.1
20260505215338 89 107 3.0 11.0 0.00 0.00 0.00 59 1006.1
20260505214942 89 159 3.0 10.0 0.00 0.00 0.00 59 1006.3
20260505213836 89 65 3.0 7.0 0.00 0.00 0.00 60 1006.3
20260505213336 89 116 3.0 8.0 0.00 0.00 0.00 61 1006.3
20260505212834 88 127 2.0 8.0 0.00 0.00 0.00 62 1006.4
20260505212333 88 226 2.0 7.0 0.00 0.00 0.00 64 1006.5
20260505211834 88 141 2.0 9.0 0.00 0.00 0.00 62 1006.5
20260505211338 87 165 3.0 8.0 0.00 0.00 0.00 63 1006.7
20260505211334 87 129 3.0 9.0 0.00 0.00 0.00 64 1006.6
20260505210334 87 163 3.0 8.0 0.00 0.00 0.00 63 1006.7
20260505205834 87 176 3.0 8.0 0.00 0.00 0.00 64 1006.8
20260505205334 86 173 3.0 7.0 0.00 0.00 0.00 65 1007.0
20260505204834 86 137 4.0 9.0 0.00 0.00 0.00 65 1007.0
20260505204334 86 189 4.0 9.0 0.00 0.00 0.00 67 1007.1
20260505203832 86 168 3.0 9.0 0.00 0.00 0.00 64 1007.2
20260505203332 87 121 2.0 7.0 0.00 0.00 0.00 64 1007.2
20260505202832 86 127 3.0 8.0 0.00 0.00 0.00 64 1007.4
20260505202332 86 169 4.0 10.0 0.00 0.00 0.00 66 1007.4
20260505201836 86 111 5.0 12.0 0.00 0.00 0.00 65 1007.6
20260505201832 86 150 5.0 11.0 0.00 0.00 0.00 64 1007.6
20260505200831 86 155 5.0 12.0 0.00 0.00 0.00 66 1007.7
20260505200332 86 192 4.0 11.0 0.00 0.00 0.00 65 1007.7
20260505195832 86 157 4.0 11.0 0.00 0.00 0.00 64 1007.7
20260505195331 87 161 2.0 8.0 0.00 0.00 0.00 64 1007.8
20260505194830 87 154 2.0 8.0 0.00 0.00 0.00 65 1007.9
20260505194332 86 160 2.0 8.0 0.00 0.00 0.00 66 1007.9
20260505194328 85 116 3.0 9.0 0.00 0.00 0.00 68 1007.9
20260505193327 84 144 4.0 9.0 0.00 0.00 0.00 67 1008.0
20260505192828 84 180 4.0 8.0 0.00 0.00 0.00 69 1008.1
20260505192330 84 192 3.0 8.0 0.00 0.00 0.00 68 1008.2
20260505192326 84 123 4.0 7.0 0.00 0.00 0.00 68 1008.1
20260505191326 84 196 4.0 12.0 0.00 0.00 0.00 71 1008.2
20260505190830 82 186 3.0 9.0 0.00 0.00 0.00 71 1008.4
20260505190826 83 166 4.0 12.0 0.00 0.00 0.00 70 1008.3
20260505185824 83 223 3.0 9.0 0.00 0.00 0.00 71 1008.6
20260505185324 82 154 5.0 13.0 0.00 0.00 0.00 71 1008.6
20260505184824 82 150 5.0 13.0 0.00 0.00 0.00 71 1008.8
20260505184324 82 207 5.0 13.0 0.00 0.00 0.00 72 1008.7
20260505183824 82 216 4.0 13.0 0.00 0.00 0.00 72 1008.7
20260505183324 82 117 3.0 8.0 0.00 0.00 0.00 72 1008.8
20260505182824 82 209 4.0 8.0 0.00 0.00 0.00 71 1008.9
20260505182324 82 123 4.0 11.0 0.00 0.00 0.00 71 1009.1
20260505181824 82 227 4.0 11.0 0.00 0.00 0.00 72 1009.1
20260505181324 82 183 5.0 11.0 0.00 0.00 0.00 73 1009.1
20260505180825 81 217 5.0 10.0 0.00 0.00 0.00 73 1009.1
20260505180325 81 167 5.0 11.0 0.00 0.00 0.00 75 1009.1
20260505175825 80 157 5.0 11.0 0.00 0.00 0.00 75 1009.1
20260505175324 80 126 5.0 10.0 0.00 0.00 0.00 74 1009.1
20260505174824 80 177 5.0 9.0 0.00 0.00 0.00 75 1009.2
20260505174324 79 219 5.0 11.0 0.00 0.00 0.00 76 1009.2
20260505173824 79 179 6.0 11.0 0.00 0.00 0.00 76 1009.3
20260505173323 79 173 5.0 11.0 0.00 0.00 0.00 76 1009.3
20260505172822 79 155 5.0 10.0 0.00 0.00 0.00 76 1009.3
20260505172322 78 176 6.0 10.0 0.00 0.00 0.00 77 1009.2
20260505171822 78 164 5.0 10.0 0.00 0.00 0.00 77 1009.3
20260505171322 77 108 6.0 10.0 0.00 0.00 0.00 78 1009.3
20260505170822 77 194 5.0 10.0 0.00 0.00 0.00 79 1009.3
20260505170323 77 143 5.0 9.0 0.00 0.00 0.00 79 1009.3
20260505165822 76 207 4.0 9.0 0.00 0.00 0.00 80 1009.3
20260505165322 76 187 4.0 9.0 0.00 0.00 0.00 80 1009.3
20260505164822 76 113 4.0 9.0 0.00 0.00 0.00 80 1009.3
20260505164322 76 196 5.0 11.0 0.00 0.00 0.00 81 1009.3
20260505163820 75 200 5.0 11.0 0.00 0.00 0.00 82 1009.3
20260505163320 75 160 5.0 10.0 0.00 0.00 0.00 82 1009.3
20260505162821 74 134 3.0 8.0 0.00 0.00 0.00 83 1009.3
20260505162324 74 188 4.0 11.0 0.00 0.00 0.00 84 1009.4
20260505162320 74 176 3.0 11.0 0.00 0.00 0.00 84 1009.3
20260505161320 74 176 4.0 8.0 0.00 0.00 0.00 84 1009.4
20260505160820 73 157 4.0 8.0 0.00 0.00 0.00 85 1009.4